COSMOS 778

导读 | 星芒AI

COSMOS 778 是苏联于1975年发射的一颗军用侦察卫星,属于“宇宙”卫星系列。该卫星主要用于电子情报收集和监视任务,具体任务细节未公开。它运行在近地轨道,最终因自然衰变再入大气层。作为冷战时期苏联航天活动的一部分,COSMOS 778 体现了当时苏联在空间侦察和监视技术方面的发展水平。

基本信息
目录编号:
8419
目录名称:
COSMOS 778
国际标识:
1975-103A
轨道中心:
EARTH
卫星名称:
COSMOS 778
卫星全名:
--
卫星状态:
在轨 (已飞行18304 天)
发射日期:
1975-11-04 UTC
国别 :
俄罗斯(独联体) (CIS)
星等 :
--
轨道信息
数据来源 国际轨道数据 AOE轨道数据
星历时间 2025-12-14T16:16:34+0800
23小时前
查看轨道信息
2025-12-13T20:00:00+0800
1天前
查看轨道信息
半长轴 7360.413km 7360.414km
偏心率 0.0022041 0.0022059
轨道倾角 82.975° 82.974°
近地点辐角 14.964° 17.349°
升交点赤经 70.288° 70.910°
平近点角 51.516° 190.077°
近地点 966.054km 966.042km
远地点 998.502km 998.516km
周期 104.740分钟 104.740分钟
每日圈数 13.748318 13.748315
详细信息
使用方式:
暂无
2D轨道图
3D轨道图
轨道高度分析图
轨道倾角分析图
轨道综合分析图
查看轨道综合分析图